Powrót do katalogu

ONEWEB-0333

AktywnyŁącznośćPO
NORAD 49199·PAYLOAD·🇬🇧 United Kingdom

Wystrzelony Sep 14, 2021 z Baikonur Cosmodrome

Loading…

Następne Przeloty (najbliższe 24 godziny)

TLE

ŚwieżeSource: CelesTrak SupGP

Epoka: Sep 14, 2026, 17:54 UTC

1 49199C 21083P   26257.74599954 -.00001460  00000+0 -40028-2 0  2575
2 49199  87.8922 302.4161 0001994  97.1235   2.1114 13.13475156    13

Śledź ONEWEB-0333 w czasie rzeczywistym z AllMySat

Download on the App Store